Погода в Кале

Турция     37°26′36″N   28°50′42″E
темп.,
°C
ветер,
м/с
пор.,
м/с
влажн.,
%
обл.,
%
осадки,
мм/ч
давл.,
гПа
погр.,
м
13 апреля, вт
вт1300:00+7вюв00645 0.0 102010
03:00+5ю11700 0.0 102010
06:00+4ююв11753 0.0 102010
09:00+10юз00535 0.0 1020289
12:00+15з11385 0.0 10191112
15:00+18зсз13355 0.0 10171595
18:00+17зюз554497 0.0 10161575
21:00+11ю237388 0.0 101942
14 апреля, ср
ср1400:00+9ю228483 0.0 101919
03:00+9ююв2378100 0.0 1018105
06:00+8ююв228197 0.0 101815
09:00+12ю23595 0.0 1018413
12:00+17ююз6832100 0.0 10161417
15:00+17ююз7839100 0.0 10161377
18:00+14ююз5746100 0.0 1016790
21:00+10ю3365100 0.0 101742
15 апреля, чт
чт1500:00+8ююв2270100 0.0 101713
03:00+8ююв22606 0.0 101712
06:00+7ююв225557 0.0 101711
09:00+12ю23421 0.0 1016376
12:00+17ююз68355 0.0 10151667
15:00+18ююз78380 0.0 10141832
18:00+16ююз674115 0.0 10141049
21:00+10ююз22607 0.0 101517
16 апреля, пт
пт1600:00+8ю11735 0.0 101610
03:00+7ююв1171100 0.0 101510
06:00+7юв006996 0.0 101510
09:00+12юз01489 0.0 1015341
12:00+17юз233038 0.0 10141089
15:00+20зюз352718 0.0 10132211
18:00+18зюз4436100 0.0 10131676
21:00+13сз1161100 0.0 101511
17 апреля, сб
сб1700:00+12зюз1164100 0.0 101610
03:00+11зюз2264100 0.0 101511
06:00+10ююз116495 0.0 101510
09:00+12в0166100 0.8 1015110
12:00+16юв2353100 0.6 1014491
15:00+21зюз4841100 0.7 10111105
18:00+19ююз4842100 0.0 1011890
21:00+13ююв2266100 0.1 101220